{"data":{"norad_id":64462,"intl_designator":"2025-130AA","name":"STARLINK-34336","alt_names":[],"object_type":"PAYLOAD","status":"ACTIVE","operator":null,"country":"US","launch_date":"2025-06-18","launch_site_code":"AFETR","launch_vehicle":null,"mission":null,"orbit_class":"UNKNOWN","rcs_meters":null,"size_class":null,"mass_kg":null,"dimensions":null,"purposes":["comms"],"wikipedia_slug":null,"has_3d_model":false,"image_url":null,"decayed_at":null,"tle_current":{"epoch":"2026-05-25T03:12:16.908192Z","epoch_age_seconds":63476,"freshness":"FRESH","line1":"1 64462U 25130AA  26145.13352903  .00019129  00000+0  62625-3 0  9992","line2":"2 64462  53.1595  95.7594 0001250  78.4131 281.7011 15.31718895 52378","mean_motion":15.31718895,"eccentricity":0.000125,"inclination_deg":53.1595,"raan_deg":95.7594,"arg_perigee_deg":78.4131,"mean_anomaly_deg":281.7011,"bstar":0.00062625,"rev_number":5237,"period_min":94.012028231851,"perigee_km":469.82756820903,"apogee_km":471.53977337672,"semimajor_km":6848.8206707929,"source":"CELESTRAK","updated_at":"2026-05-25T13:38:20.454030Z"}}}